Location: Budapest
(47.4979°N, 19.0402°E)
Time: 15:45:52
(UTC+02:00)

Envisat - Visible Passes

Search period start: 21 October 2017 00:00
Search period end: 30 October 2017 23:00
Orbit: 764 x 766 km, 98.2° (Epoch: 21 October)

Date Brightness Start Highest point End Pass type
(mag) Time Alt. Az. Time Alt. Az. Time Alt. Az.
21 Oct 4.7 18:40:43 13° ENE 18:42:11 14° NE 18:44:45 10° NNE visible
21 Oct 3.0 20:20:56 72° N 20:20:56 72° N 20:25:33 10° NNW visible
21 Oct 5.8 22:01:09 13° WNW 22:01:09 13° WNW 22:02:44 10° NW visible
22 Oct 3.4 19:43:57 41° ENE 19:43:57 41° ENE 19:48:36 10° N visible
22 Oct 4.9 21:24:10 26° WNW 21:24:10 26° WNW 21:27:23 10° NW visible
23 Oct 4.2 19:06:58 22° ENE 19:07:26 22° ENE 19:11:16 10° NNE visible
23 Oct 3.8 20:47:11 48° NW 20:47:11 48° NW 20:51:06 10° NNW visible
24 Oct 4.8 18:29:58 11° ENE 18:31:15 12° NE 18:32:55 10° NE visible
24 Oct 3.2 20:10:12 56° NNE 20:10:12 56° NNE 20:14:24 10° N visible
24 Oct 5.6 21:50:25 15° WNW 21:50:25 15° WNW 21:52:13 10° NW visible
25 Oct 3.7 19:33:12 33° NE 19:33:12 33° NE 19:37:21 10° N visible
25 Oct 4.8 21:13:25 28° WNW 21:13:25 28° WNW 21:16:28 10° NNW visible
26 Oct 4.4 18:56:13 18° ENE 18:56:28 18° ENE 18:59:51 10° NNE visible
26 Oct 3.8 20:36:26 46° NNW 20:36:26 46° NNW 20:40:02 10° NNW visible
27 Oct 3.5 19:59:27 44° NNE 19:59:27 44° NNE 20:03:14 10° N visible
27 Oct 5.5 21:39:39 17° WNW 21:39:39 17° WNW 21:41:30 10° NW visible
28 Oct 4.0 19:22:27 27° NE 19:22:27 27° NE 19:26:05 10° N visible
28 Oct 4.7 21:02:40 29° NW 21:02:40 29° NW 21:05:29 10° NNW visible
29 Oct 4.6 17:45:27 15° ENE 17:45:31 15° NE 17:48:20 10° NNE visible
29 Oct 3.9 19:25:40 41° NNW 19:25:40 41° NNW 19:28:56 10° NNW visible
30 Oct 3.8 18:48:40 35° NNE 18:48:40 35° NNE 18:52:02 10° N visible
30 Oct 5.4 20:28:53 18° NW 20:28:53 18° NW 20:30:41 10° NW visible
